Change the Weather History Date:

Thursday, May 16, 2013

  Actual Average Record
Temperature  
Mean Temperature 63 °F 59 °F  
Max Temperature 75 °F 72 °F 95 °F (2009)
Min Temperature 51 °F 46 °F 37 °F (1999)
Degree Days  
Heating Degree Days 2    
Month to date heating degree days 38  
Since 1 July heating degree days 2782  
Cooling Degree Days 0    
Month to date cooling degree days 9  
Year to date cooling degree days 12  
Growing Degree Days 14 (Base 50)    
Moisture  
Dew Point 49 °F    
Average Humidity 64    
Maximum Humidity 89    
Minimum Humidity 38    
Precipitation  
Precipitation T in - 0.35 in (2011)
Month to date precipitation 0.05  
Year to date precipitation 1.75  
Since 1 July precipitation 9.54  
Sea Level Pressure  
Sea Level Pressure 29.95 in    
Wind  
Wind Speed 15 mph (WSW)    
Max Wind Speed 29 mph    
Max Gust Speed 36 mph    
Visibility 10 miles    
Events      
T = Trace of Precipitation, MM = Missing Value Source: NWS Daily Summary

Daily Weather History Graph

Daily Weather History Graph

Search for Another Location

Airport or City:

Trip Planner

Search our weather history database for the weather conditions in past years. The results will help you decide how hot, cold, wet, or windy it might be!

Date:

Astronomy

May. 16, 2013 Rise Set
Actual Time 5:57 AM PDT 8:14 PM PDT
Civil Twilight 5:27 AM PDT 8:44 PM PDT
Nautical Twilight 4:50 AM PDT 9:20 PM PDT
Astronomical Twilight 4:10 AM PDT 10:01 PM PDT
Moon 11:34 AM PDT (5/16) 12:39 AM PDT (5/16)
Length of Visible Light 15h 16m
Length of Day
14h 17m
Waxing Crescent, 36% of the Moon is Illuminated
May 16
Waxing Crescent
May 17
First Quarter
May 24
Full
May 31
Last Quarter
Jun 8
New

Hourly Weather History & Observations

Time (PDT) Temp. Dew Point Humidity Pressure Visibility Wind Dir Wind Speed Gust Speed Precip Events Conditions
12:54 AM 55.9 °F 48.9 °F 77% 29.97 in 10.0 mi WSW 13.8 mph - N/A   Clear
1:54 AM 55.9 °F 48.9 °F 77% 29.95 in 10.0 mi SW 17.3 mph - N/A   Clear
2:54 AM 55.9 °F 50.0 °F 80% 29.94 in 10.0 mi SW 12.7 mph - N/A   Clear
3:54 AM 57.0 °F 50.0 °F 77% 29.95 in 10.0 mi West 9.2 mph - N/A   Overcast
4:54 AM 55.9 °F 50.0 °F 80% 29.94 in 10.0 mi WSW 12.7 mph - N/A   Overcast
5:54 AM 55.9 °F 50.0 °F 80% 29.96 in 10.0 mi WSW 10.4 mph - N/A   Mostly Cloudy
6:54 AM 57.0 °F 50.0 °F 77% 29.97 in 10.0 mi WSW 6.9 mph - 0.00 in   Overcast
7:54 AM 57.0 °F 51.1 °F 81% 29.98 in 10.0 mi WSW 10.4 mph - 0.00 in   Overcast
8:54 AM 57.9 °F 51.1 °F 78% 29.99 in 10.0 mi WSW 12.7 mph - N/A   Overcast
9:54 AM 63.0 °F 52.0 °F 67% 29.99 in 10.0 mi WSW 11.5 mph - N/A   Scattered Clouds
10:54 AM 68.0 °F 52.0 °F 56% 29.98 in 10.0 mi West 12.7 mph - N/A   Scattered Clouds
12:54 PM 73.0 °F 50.0 °F 44% 29.96 in 10.0 mi West 17.3 mph - N/A   Scattered Clouds
1:54 PM 75.0 °F 48.9 °F 40% 29.94 in 10.0 mi West 18.4 mph 23.0 mph N/A   Clear
2:54 PM 72.0 °F 46.9 °F 41% 29.94 in 10.0 mi West 20.7 mph 29.9 mph N/A   Clear
3:54 PM 70.0 °F 45.0 °F 41% 29.93 in 10.0 mi West 26.5 mph 32.2 mph N/A   Clear
4:54 PM 69.1 °F 46.0 °F 44% 29.92 in 10.0 mi West 20.7 mph 29.9 mph N/A   Clear
5:54 PM 62.1 °F 46.9 °F 58% 29.91 in 10.0 mi West 24.2 mph 33.4 mph N/A   Clear
6:54 PM 61.0 °F 48.0 °F 62% 29.91 in 10.0 mi West 20.7 mph 34.5 mph N/A   Mostly Cloudy
7:54 PM 57.9 °F 48.0 °F 70% 29.92 in 10.0 mi West 21.9 mph 29.9 mph N/A   Clear
8:54 PM 55.9 °F 46.0 °F 69% 29.94 in 10.0 mi WSW 15.0 mph - N/A   Clear
9:54 PM 54.0 °F 46.9 °F 77% 29.95 in 10.0 mi West 16.1 mph 24.2 mph N/A   Clear
10:54 PM 53.1 °F 48.0 °F 83% 29.96 in 10.0 mi West 15.0 mph - N/A   Clear
11:54 PM 52.0 °F 48.0 °F 86% 29.95 in 10.0 mi West 11.5 mph - N/A   Clear